TimeEDT,TemperatureF,Dew PointF,Humidity,Sea Level PressureIn,VisibilityMPH,Wind Direction,Wind SpeedMPH,Gust SpeedMPH,PrecipitationIn,Events,Conditions,WindDirDegrees,DateUTC
12:53 AM,44.1,44.1,100,29.85,10.0,Calm,Calm,-,N/A,,Clear,0,2012-10-07 04:53:00
1:53 AM,46.0,45.0,96,29.87,10.0,Calm,Calm,-,N/A,,Partly Cloudy,0,2012-10-07 05:53:00
2:53 AM,45.0,44.1,97,29.90,10.0,NW,4.6,-,N/A,,Partly Cloudy,310,2012-10-07 06:53:00
3:53 AM,42.1,42.1,100,29.92,10.0,WSW,5.8,-,N/A,,Clear,240,2012-10-07 07:53:00
4:53 AM,42.1,41.0,96,29.94,10.0,SW,4.6,-,N/A,,Clear,230,2012-10-07 08:53:00
5:53 AM,41.0,39.9,96,29.95,10.0,WSW,4.6,-,N/A,,Partly Cloudy,240,2012-10-07 09:53:00
6:53 AM,41.0,39.9,96,29.97,10.0,Calm,Calm,-,N/A,,Partly Cloudy,0,2012-10-07 10:53:00
7:53 AM,45.0,41.0,86,30.01,10.0,West,3.5,-,N/A,,Scattered Clouds,270,2012-10-07 11:53:00
8:53 AM,48.0,41.0,77,30.02,10.0,Variable,5.8,-,N/A,,Scattered Clouds,0,2012-10-07 12:53:00
9:53 AM,52.0,39.0,61,30.04,10.0,NW,8.1,-,N/A,,Mostly Cloudy,320,2012-10-07 13:53:00
10:53 AM,53.1,39.0,59,30.03,10.0,NW,6.9,-,N/A,,Mostly Cloudy,310,2012-10-07 14:53:00
11:53 AM,53.1,37.9,57,30.04,10.0,NNW,6.9,-,N/A,,Overcast,330,2012-10-07 15:53:00
12:53 PM,53.1,37.9,57,30.02,10.0,Variable,3.5,-,N/A,,Overcast,0,2012-10-07 16:53:00
1:53 PM,55.0,39.0,55,30.01,10.0,Calm,Calm,-,N/A,,Overcast,0,2012-10-07 17:53:00
2:53 PM,54.0,37.9,55,30.02,10.0,Calm,Calm,-,N/A,,Overcast,0,2012-10-07 18:53:00
3:53 PM,54.0,39.9,59,30.02,10.0,West,3.5,-,N/A,,Overcast,280,2012-10-07 19:53:00
4:53 PM,53.1,41.0,64,30.02,10.0,Calm,Calm,-,N/A,,Overcast,0,2012-10-07 20:53:00
5:53 PM,51.1,42.1,71,30.03,10.0,South,3.5,-,N/A,,Overcast,180,2012-10-07 21:53:00
6:53 PM,46.9,42.1,83,30.04,10.0,ESE,3.5,-,N/A,,Overcast,120,2012-10-07 22:53:00
7:53 PM,48.0,44.1,86,30.02,10.0,SE,5.8,-,N/A,,Overcast,130,2012-10-07 23:53:00
8:53 PM,48.0,44.1,86,30.02,10.0,South,3.5,-,N/A,,Overcast,190,2012-10-08 00:53:00
9:53 PM,48.0,44.1,86,30.01,10.0,Calm,Calm,-,N/A,,Overcast,0,2012-10-08 01:53:00
10:53 PM,46.9,45.0,93,30.01,10.0,Calm,Calm,-,N/A,,Overcast,0,2012-10-08 02:53:00
11:53 PM,46.9,46.0,97,30.01,10.0,Calm,Calm,-,0.00,Rain,Light Rain,0,2012-10-08 03:53:00